Location: Newark
(42.8481°N, 0.4872°E)
Time: 14:36:19
(UTC+00:00)

A-11 Canister half - All Passes

Search period start: 31 October 2020 00:00
Search period end: 10 November 2020 00:00
Orbit: 1515 x 1685 km, 47.2° (Epoch: 30 October)

Date Brightness Start Highest point End Pass type
(mag) Time Alt. Az. Time Alt. Az. Time Alt. Az.
31 Oct - 00:01:30 10° WNW 00:11:32 82° NNE 00:21:10 10° ESE night (unlit)
31 Oct - 02:06:54 10° WNW 02:16:09 49° SW 02:25:04 10° SSE visible
31 Oct - 04:15:49 10° W 04:19:08 12° WSW 04:22:26 10° SW visible
31 Oct - 17:25:01 10° S 17:33:18 30° SE 17:41:32 10° ENE visible
31 Oct - 19:27:10 10° SW 19:37:21 77° SSE 19:47:19 10° ENE visible
31 Oct - 21:32:38 10° W 21:42:47 70° N 21:52:36 10° ENE visible
31 Oct - 23:38:31 10° WNW 23:48:34 80° NNE 23:58:15 10° ESE visible
01 Nov - 01:43:55 10° WNW 01:53:17 51° SW 02:02:18 10° SSE visible
01 Nov - 03:52:09 10° W 03:56:21 14° WSW 04:00:32 10° SSW visible
01 Nov - 17:02:23 10° S 17:10:27 28° SE 17:18:28 10° ENE visible
01 Nov - 19:04:16 10° SW 19:14:23 74° SSE 19:24:22 10° ENE visible
01 Nov - 21:09:37 10° W 21:19:47 71° N 21:29:39 10° ENE visible
01 Nov - 23:15:31 10° WNW 23:25:37 79° NNE 23:35:19 10° ESE visible
02 Nov - 01:20:56 10° WNW 01:30:25 54° SW 01:39:32 10° SE night (unlit)
02 Nov - 03:28:40 10° W 03:33:34 15° WSW 03:38:25 10° SSW visible
02 Nov - 16:39:47 10° S 16:47:36 26° SE 16:55:22 10° ENE daylight
02 Nov - 18:41:22 10° SW 18:51:28 71° SSE 19:01:25 10° ENE visible
02 Nov - 20:46:37 10° W 20:56:47 72° N 21:06:42 10° ENE visible
02 Nov - 22:52:31 10° WNW 23:02:38 77° NNE 23:12:22 10° ESE visible
03 Nov - 00:57:56 10° WNW 01:07:31 57° SW 01:16:45 10° SE night (unlit)
03 Nov - 03:05:17 10° W 03:10:47 17° WSW 03:16:12 10° SSW night (unlit)
03 Nov - 16:17:14 10° S 16:24:45 24° SE 16:32:15 10° E daylight
03 Nov - 18:18:28 10° SW 18:28:32 68° SSE 18:38:29 10° ENE visible
03 Nov - 20:23:36 10° W 20:33:47 73° N 20:43:44 10° ENE visible
03 Nov - 22:29:32 10° WNW 22:39:39 76° NNE 22:49:26 10° E visible
04 Nov - 00:34:57 10° WNW 00:44:38 60° SW 00:53:57 10° SE night (unlit)
04 Nov - 02:41:59 10° W 02:47:59 18° SW 02:53:53 10° SSW night (unlit)
04 Nov - 15:54:43 10° S 16:01:55 22° SE 16:09:05 10° E daylight
04 Nov - 17:55:35 10° SW 18:05:36 66° SE 18:15:32 10° ENE visible
04 Nov - 20:00:35 10° W 20:10:48 74° NNW 20:20:47 10° ENE visible
04 Nov - 22:06:33 10° WNW 22:16:41 75° NNE 22:26:28 10° E visible
05 Nov - 00:11:58 10° WNW 00:21:45 63° SW 00:31:09 10° SE night (unlit)
05 Nov - 02:18:44 10° W 02:25:11 20° SW 02:31:31 10° SSW night (unlit)
05 Nov - 15:32:16 10° S 15:39:05 21° SE 15:45:55 10° E daylight
05 Nov - 17:32:43 10° SW 17:42:40 63° SE 17:52:34 10° ENE visible
05 Nov - 19:37:35 10° W 19:47:49 75° NNW 19:57:50 10° ENE visible
05 Nov - 21:43:33 10° WNW 21:53:42 73° N 22:03:32 10° E visible
05 Nov - 23:48:59 10° WNW 23:58:50 66° SW 00:08:20 10° SE visible
06 Nov - 01:55:31 10° W 02:02:22 22° SW 02:09:05 10° S night (unlit)
06 Nov - 15:09:50 10° SSE 15:16:15 19° SE 15:22:41 10° E daylight
06 Nov - 17:09:52 10° SW 17:19:45 60° SE 17:29:37 10° ENE visible
06 Nov - 19:14:35 10° W 19:24:49 77° NNW 19:34:53 10° ENE visible
06 Nov - 21:20:33 10° WNW 21:30:43 72° N 21:40:34 10° E visible
06 Nov - 23:26:01 10° WNW 23:35:56 69° SSW 23:45:29 10° SE visible
07 Nov - 01:32:21 10° W 01:39:34 24° SW 01:46:36 10° S night (unlit)
07 Nov - 14:47:28 10° SSE 14:53:26 18° SE 14:59:24 10° E daylight
07 Nov - 16:47:01 10° SW 16:56:50 57° SE 17:06:39 10° ENE daylight
07 Nov - 18:51:36 10° WSW 19:01:49 78° NNW 19:11:55 10° ENE visible
07 Nov - 20:57:32 10° WNW 21:07:43 72° N 21:17:36 10° E visible
07 Nov - 23:03:01 10° WNW 23:13:02 72° SSW 23:22:38 10° SE visible
08 Nov - 01:09:13 10° WNW 01:16:45 26° SW 01:24:06 10° S night (unlit)
08 Nov - 14:25:12 10° SSE 14:30:37 16° ESE 14:36:03 10° E daylight
08 Nov - 16:24:12 10° SW 16:33:56 54° SE 16:43:40 10° ENE daylight
08 Nov - 18:28:36 10° WSW 18:38:50 80° NNW 18:48:58 10° ENE visible
08 Nov - 20:34:32 10° WNW 20:44:43 71° N 20:54:38 10° E visible
08 Nov - 22:40:03 10° WNW 22:50:06 75° SSW 22:59:47 10° SE visible
09 Nov - 00:46:06 10° WNW 00:53:56 28° SW 01:01:33 10° S night (unlit)
09 Nov - 14:03:01 10° SSE 14:07:48 14° ESE 14:12:36 10° E daylight
09 Nov - 16:01:24 10° SSW 16:11:02 52° SE 16:20:42 10° ENE daylight
09 Nov - 18:05:37 10° WSW 18:15:51 81° NNW 18:26:01 10° ENE visible
09 Nov - 20:11:32 10° WNW 20:21:43 70° N 20:31:40 10° E visible
09 Nov - 22:17:04 10° WNW 22:27:10 78° SSW 22:36:55 10° SE visible
